����������;��������(kWh)
2016-11-07 00:00;76,45
2016-11-07 00:15;78,3
2016-11-07 00:30;76,05
2016-11-07 00:45;76,6
2016-11-07 01:00;76,65
2016-11-07 01:15;74,95
2016-11-07 01:30;76,1
2016-11-07 01:45;74,25
2016-11-07 02:00;74,7
2016-11-07 02:15;74,25
2016-11-07 02:30;72
2016-11-07 02:45;73,7
2016-11-07 03:00;70,2
2016-11-07 03:15;73,15
2016-11-07 03:30;71,1
2016-11-07 03:45;72
2016-11-07 04:00;72,1
2016-11-07 04:15;70,3
2016-11-07 04:30;71,25
2016-11-07 04:45;69,9
2016-11-07 05:00;71,4
2016-11-07 05:15;72,75
2016-11-07 05:30;73,3
2016-11-07 05:45;77,4
2016-11-07 06:00;75,25
2016-11-07 06:15;79,8
2016-11-07 06:30;77,3
2016-11-07 06:45;79,8
2016-11-07 07:00;83,5
2016-11-07 07:15;87,9
2016-11-07 07:30;86,55
2016-11-07 07:45;90,5
2016-11-07 08:00;92,95
2016-11-07 08:15;94,45
2016-11-07 08:30;100,05
2016-11-07 08:45;103,55
2016-11-07 09:00;112,95
2016-11-07 09:15;113,6
2016-11-07 09:30;114,8
2016-11-07 09:45;110,95
2016-11-07 10:00;112,1
2016-11-07 10:15;115,9
2016-11-07 10:30;115,55
2016-11-07 10:45;120,5
2016-11-07 11:00;124,15
2016-11-07 11:15;127,35
2016-11-07 11:30;141,45
2016-11-07 11:45;144,8
2016-11-07 12:00;146,15
2016-11-07 12:15;146,6
2016-11-07 12:30;146,55
2016-11-07 12:45;145,6
2016-11-07 13:00;148,45
2016-11-07 13:15;138,35
2016-11-07 13:30;142,95
2016-11-07 13:45;141,6
2016-11-07 14:00;141
2016-11-07 14:15;139,2
2016-11-07 14:30;136,7
2016-11-07 14:45;135,9
2016-11-07 15:00;131
2016-11-07 15:15;132,95
2016-11-07 15:30;129,8
2016-11-07 15:45;126,8
2016-11-07 16:00;123,05
2016-11-07 16:15;118,4
2016-11-07 16:30;118,9
2016-11-07 16:45;116,9
2016-11-07 17:00;117,55
2016-11-07 17:15;115,2
2016-11-07 17:30;121,75
2016-11-07 17:45;122,2
2016-11-07 18:00;126,15
2016-11-07 18:15;121,25
2016-11-07 18:30;122,1
2016-11-07 18:45;116,2
2016-11-07 19:00;119,9
2016-11-07 19:15;111,85
2016-11-07 19:30;110,45
2016-11-07 19:45;108,9
2016-11-07 20:00;107,05
2016-11-07 20:15;106,85
2016-11-07 20:30;109,75
2016-11-07 20:45;107,35
2016-11-07 21:00;107,2
2016-11-07 21:15;102,7
2016-11-07 21:30;104,2
2016-11-07 21:45;93,9
2016-11-07 22:00;85,7
2016-11-07 22:15;82,2
2016-11-07 22:30;84,9
2016-11-07 22:45;81,7
2016-11-07 23:00;80,5
2016-11-07 23:15;79,6
2016-11-07 23:30;76,3
2016-11-07 23:45;77,3
2016-11-08 00:00;74,95
2016-11-08 00:15;76,6
2016-11-08 00:30;73,8
2016-11-08 00:45;75,5
2016-11-08 01:00;74,1
2016-11-08 01:15;75,25
2016-11-08 01:30;72,35
2016-11-08 01:45;73,9
2016-11-08 02:00;73,45
2016-11-08 02:15;72,55
2016-11-08 02:30;73,25
2016-11-08 02:45;70,7
2016-11-08 03:00;73,35
2016-11-08 03:15;71,55
2016-11-08 03:30;72,65
2016-11-08 03:45;71,25
2016-11-08 04:00;71,9
2016-11-08 04:15;72,3
2016-11-08 04:30;70
2016-11-08 04:45;72,85
2016-11-08 05:00;71,25
2016-11-08 05:15;73,85
2016-11-08 05:30;72,35
2016-11-08 05:45;73,2
2016-11-08 06:00;76,85
2016-11-08 06:15;85,1
2016-11-08 06:30;89,55
2016-11-08 06:45;89,25
2016-11-08 07:00;85,8
2016-11-08 07:15;84,15
2016-11-08 07:30;80,6
2016-11-08 07:45;83,85
2016-11-08 08:00;82,15
2016-11-08 08:15;82,45
2016-11-08 08:30;89,4
2016-11-08 08:45;95,4
2016-11-08 09:00;103,1
2016-11-08 09:15;110,3
2016-11-08 09:30;117,45
2016-11-08 09:45;127
2016-11-08 10:00;128,65
2016-11-08 10:15;131,65
2016-11-08 10:30;130,6
2016-11-08 10:45;134,1
2016-11-08 11:00;137,9
2016-11-08 11:15;142,3
2016-11-08 11:30;148,3
2016-11-08 11:45;148,15
2016-11-08 12:00;144,3
2016-11-08 12:15;138,7
2016-11-08 12:30;138
2016-11-08 12:45;141,45
2016-11-08 13:00;145,6
2016-11-08 13:15;143,5
2016-11-08 13:30;146,05
2016-11-08 13:45;144,85
2016-11-08 14:00;145,05
2016-11-08 14:15;143,1
2016-11-08 14:30;143,6
2016-11-08 14:45;144,7
2016-11-08 15:00;139,2
2016-11-08 15:15;138,95
2016-11-08 15:30;134,45
2016-11-08 15:45;130,45
2016-11-08 16:00;129,85
2016-11-08 16:15;125,9
2016-11-08 16:30;125,55
2016-11-08 16:45;123,7
2016-11-08 17:00;121,9
2016-11-08 17:15;121,5
2016-11-08 17:30;121,35
2016-11-08 17:45;124,9
2016-11-08 18:00;118,6
2016-11-08 18:15;119
2016-11-08 18:30;116,95
2016-11-08 18:45;121,75
2016-11-08 19:00;119,6
2016-11-08 19:15;116,8
2016-11-08 19:30;111,65
2016-11-08 19:45;106,4
2016-11-08 20:00;102,65
2016-11-08 20:15;100,55
2016-11-08 20:30;100,75
2016-11-08 20:45;100,05
2016-11-08 21:00;99
2016-11-08 21:15;96,45
2016-11-08 21:30;92,55
2016-11-08 21:45;93,7
2016-11-08 22:00;89,35
2016-11-08 22:15;85,65
2016-11-08 22:30;87,1
2016-11-08 22:45;87,25
2016-11-08 23:00;89,7
2016-11-08 23:15;88,55
2016-11-08 23:30;87,3
2016-11-08 23:45;83,15
2016-11-09 00:00;79,4
2016-11-09 00:15;76,35
2016-11-09 00:30;77,2
2016-11-09 00:45;76,35
2016-11-09 01:00;75,65
2016-11-09 01:15;76,05
2016-11-09 01:30;74,4
2016-11-09 01:45;75,2
2016-11-09 02:00;74,05
2016-11-09 02:15;74,45
2016-11-09 02:30;74,25
2016-11-09 02:45;73,55
2016-11-09 03:00;75,45
2016-11-09 03:15;73,5
2016-11-09 03:30;75,4
2016-11-09 03:45;74,25
2016-11-09 04:00;75
2016-11-09 04:15;73,7
2016-11-09 04:30;72,75
2016-11-09 04:45;74,2
2016-11-09 05:00;75
2016-11-09 05:15;75,9
2016-11-09 05:30;74
2016-11-09 05:45;75,55
2016-11-09 06:00;78,5
2016-11-09 06:15;85,75
2016-11-09 06:30;87,3
2016-11-09 06:45;84,55
2016-11-09 07:00;88,1
2016-11-09 07:15;81,5
2016-11-09 07:30;85,7
2016-11-09 07:45;83,6
2016-11-09 08:00;83,05
2016-11-09 08:15;92,45
2016-11-09 08:30;97,15
2016-11-09 08:45;104,1
2016-11-09 09:00;111,95
2016-11-09 09:15;114,85
2016-11-09 09:30;120,8
2016-11-09 09:45;125,05
2016-11-09 10:00;128,85
2016-11-09 10:15;132,65
2016-11-09 10:30;126,05
2016-11-09 10:45;132
2016-11-09 11:00;134,3
2016-11-09 11:15;138,35
2016-11-09 11:30;138,7
2016-11-09 11:45;141,35
2016-11-09 12:00;139,8
2016-11-09 12:15;138,8
2016-11-09 12:30;140,4
2016-11-09 12:45;140,9
2016-11-09 13:00;143,7
2016-11-09 13:15;138,65
2016-11-09 13:30;149,1
2016-11-09 13:45;146,6
2016-11-09 14:00;145,5
2016-11-09 14:15;142,4
2016-11-09 14:30;143,05
2016-11-09 14:45;144,95
2016-11-09 15:00;148,05
2016-11-09 15:15;145,55
2016-11-09 15:30;135,4
2016-11-09 15:45;131,55
2016-11-09 16:00;126,4
2016-11-09 16:15;125,7
2016-11-09 16:30;125,3
2016-11-09 16:45;128,8
2016-11-09 17:00;132,45
2016-11-09 17:15;125,1
2016-11-09 17:30;130,05
2016-11-09 17:45;131,35
2016-11-09 18:00;126,85
2016-11-09 18:15;123,4
2016-11-09 18:30;119,9
2016-11-09 18:45;121,55
2016-11-09 19:00;120,25
2016-11-09 19:15;124,45
2016-11-09 19:30;120,85
2016-11-09 19:45;116,4
2016-11-09 20:00;109,65
2016-11-09 20:15;100,45
2016-11-09 20:30;103,5
2016-11-09 20:45;99,3
2016-11-09 21:00;96
2016-11-09 21:15;92,5
2016-11-09 21:30;94,7
2016-11-09 21:45;94,3
2016-11-09 22:00;82,75
2016-11-09 22:15;80,05
2016-11-09 22:30;79
2016-11-09 22:45;80,85
2016-11-09 23:00;79,65
2016-11-09 23:15;79,4
2016-11-09 23:30;80,75
2016-11-09 23:45;81,6
2016-11-10 00:00;83,35
2016-11-10 00:15;80,15
2016-11-10 00:30;82
2016-11-10 00:45;80,6
2016-11-10 01:00;82,55
2016-11-10 01:15;77,65
2016-11-10 01:30;72,5
2016-11-10 01:45;72,6
2016-11-10 02:00;73
2016-11-10 02:15;76,05
2016-11-10 02:30;72,45
2016-11-10 02:45;74,35
2016-11-10 03:00;73,15
2016-11-10 03:15;70,85
2016-11-10 03:30;73,85
2016-11-10 03:45;73,7
2016-11-10 04:00;73,15
2016-11-10 04:15;70,05
2016-11-10 04:30;72
2016-11-10 04:45;71,55
2016-11-10 05:00;72,75
2016-11-10 05:15;74,55
2016-11-10 05:30;70,1
2016-11-10 05:45;74,7
2016-11-10 06:00;75,05
2016-11-10 06:15;81,4
2016-11-10 06:30;85,1
2016-11-10 06:45;80,85
2016-11-10 07:00;79,55
2016-11-10 07:15;76,95
2016-11-10 07:30;79,45
2016-11-10 07:45;82,35
2016-11-10 08:00;85,4
2016-11-10 08:15;89,05
2016-11-10 08:30;99,6
2016-11-10 08:45;109,4
2016-11-10 09:00;111,25
2016-11-10 09:15;114,95
2016-11-10 09:30;116,9
2016-11-10 09:45;117,25
2016-11-10 10:00;120,45
2016-11-10 10:15;123,15
2016-11-10 10:30;124,5
2016-11-10 10:45;131,45
2016-11-10 11:00;134,45
2016-11-10 11:15;134,2
2016-11-10 11:30;140,4
2016-11-10 11:45;144,3
2016-11-10 12:00;145,65
2016-11-10 12:15;139,45
2016-11-10 12:30;141,5
2016-11-10 12:45;141,4
2016-11-10 13:00;143,6
2016-11-10 13:15;143,6
2016-11-10 13:30;145,55
2016-11-10 13:45;144,9
2016-11-10 14:00;145,15
2016-11-10 14:15;149,95
2016-11-10 14:30;142,5
2016-11-10 14:45;144,55
2016-11-10 15:00;142,95
2016-11-10 15:15;137,8
2016-11-10 15:30;137,5
2016-11-10 15:45;132,5
2016-11-10 16:00;132,25
2016-11-10 16:15;126,55
2016-11-10 16:30;125,65
2016-11-10 16:45;121,55
2016-11-10 17:00;120,2
2016-11-10 17:15;118,75
2016-11-10 17:30;118,5
2016-11-10 17:45;120,4
2016-11-10 18:00;122,9
2016-11-10 18:15;123,55
2016-11-10 18:30;121,7
2016-11-10 18:45;117,45
2016-11-10 19:00;120,7
2016-11-10 19:15;119,5
2016-11-10 19:30;115,6
2016-11-10 19:45;116,8
2016-11-10 20:00;114,7
2016-11-10 20:15;113
2016-11-10 20:30;103,4
2016-11-10 20:45;96,55
2016-11-10 21:00;96,15
2016-11-10 21:15;93,05
2016-11-10 21:30;95,3
2016-11-10 21:45;87,85
2016-11-10 22:00;84,85
2016-11-10 22:15;84,6
2016-11-10 22:30;81,05
2016-11-10 22:45;82,4
2016-11-10 23:00;85,2
2016-11-10 23:15;85
2016-11-10 23:30;81,3
2016-11-10 23:45;83,15
2016-11-11 00:00;84,6
2016-11-11 00:15;81,05
2016-11-11 00:30;76,9
2016-11-11 00:45;72,65
2016-11-11 01:00;74
2016-11-11 01:15;72,15
2016-11-11 01:30;73,5
2016-11-11 01:45;70,35
2016-11-11 02:00;73,75
2016-11-11 02:15;72,4
2016-11-11 02:30;71,2
2016-11-11 02:45;73
2016-11-11 03:00;70,95
2016-11-11 03:15;72,4
2016-11-11 03:30;72,65
2016-11-11 03:45;72,95
2016-11-11 04:00;72,3
2016-11-11 04:15;70,75
2016-11-11 04:30;72,15
2016-11-11 04:45;70,5
2016-11-11 05:00;73,75
2016-11-11 05:15;72,3
2016-11-11 05:30;72,9
2016-11-11 05:45;71,6
2016-11-11 06:00;77,55
2016-11-11 06:15;78,75
2016-11-11 06:30;81,15
2016-11-11 06:45;80,95
2016-11-11 07:00;77,3
2016-11-11 07:15;76,8
2016-11-11 07:30;79,55
2016-11-11 07:45;84,25
2016-11-11 08:00;84,6
2016-11-11 08:15;89,1
2016-11-11 08:30;97
2016-11-11 08:45;100,25
2016-11-11 09:00;112,35
2016-11-11 09:15;118,75
2016-11-11 09:30;125,2
2016-11-11 09:45;123,55
2016-11-11 10:00;125,6
2016-11-11 10:15;130,9
2016-11-11 10:30;128
2016-11-11 10:45;121,5
2016-11-11 11:00;125,1
2016-11-11 11:15;127,5
2016-11-11 11:30;126,65
2016-11-11 11:45;129,6
2016-11-11 12:00;131
2016-11-11 12:15;127,9
2016-11-11 12:30;132,15
2016-11-11 12:45;128,7
2016-11-11 13:00;136,75
2016-11-11 13:15;136,55
2016-11-11 13:30;140,2
2016-11-11 13:45;136,8
2016-11-11 14:00;132,35
2016-11-11 14:15;132,35
2016-11-11 14:30;143,5
2016-11-11 14:45;143,3
2016-11-11 15:00;137
2016-11-11 15:15;125,2
2016-11-11 15:30;120,45
2016-11-11 15:45;124,8
2016-11-11 16:00;119,55
2016-11-11 16:15;116,8
2016-11-11 16:30;116,15
2016-11-11 16:45;118,75
2016-11-11 17:00;110,5
2016-11-11 17:15;110,4
2016-11-11 17:30;111,2
2016-11-11 17:45;114,65
2016-11-11 18:00;115,55
2016-11-11 18:15;110,95
2016-11-11 18:30;110,95
2016-11-11 18:45;109,1
2016-11-11 19:00;111,35
2016-11-11 19:15;101,7
2016-11-11 19:30;98,25
2016-11-11 19:45;102,25
2016-11-11 20:00;94,15
2016-11-11 20:15;96,7
2016-11-11 20:30;97,9
2016-11-11 20:45;94,9
2016-11-11 21:00;96,6
2016-11-11 21:15;92,85
2016-11-11 21:30;93,85
2016-11-11 21:45;97,05
2016-11-11 22:00;91,45
2016-11-11 22:15;94,9
2016-11-11 22:30;89,1
2016-11-11 22:45;89,1
2016-11-11 23:00;83,55
2016-11-11 23:15;76,85
2016-11-11 23:30;78,3
2016-11-11 23:45;75,45
2016-11-12 00:00;76,8
2016-11-12 00:15;76,15
2016-11-12 00:30;72,3
2016-11-12 00:45;74,5
2016-11-12 01:00;73,2
2016-11-12 01:15;73,7
2016-11-12 01:30;73,35
2016-11-12 01:45;71,55
2016-11-12 02:00;72,7
2016-11-12 02:15;72,75
2016-11-12 02:30;70,05
2016-11-12 02:45;70,6
2016-11-12 03:00;70,4
2016-11-12 03:15;71,95
2016-11-12 03:30;73,45
2016-11-12 03:45;71,4
2016-11-12 04:00;70,95
2016-11-12 04:15;70,45
2016-11-12 04:30;69,2
2016-11-12 04:45;73,5
2016-11-12 05:00;71,65
2016-11-12 05:15;71,25
2016-11-12 05:30;70,75
2016-11-12 05:45;71,5
2016-11-12 06:00;77,8
2016-11-12 06:15;80,55
2016-11-12 06:30;84,2
2016-11-12 06:45;84,8
2016-11-12 07:00;78,25
2016-11-12 07:15;76,95
2016-11-12 07:30;75,15
2016-11-12 07:45;67,9
2016-11-12 08:00;72,05
2016-11-12 08:15;64,05
2016-11-12 08:30;65,45
2016-11-12 08:45;65,15
2016-11-12 09:00;63,7
2016-11-12 09:15;65,2
2016-11-12 09:30;62,6
2016-11-12 09:45;63,3
2016-11-12 10:00;65,95
2016-11-12 10:15;66,7
2016-11-12 10:30;69
2016-11-12 10:45;65,65
2016-11-12 11:00;69,9
2016-11-12 11:15;69
2016-11-12 11:30;67,4
2016-11-12 11:45;69,2
2016-11-12 12:00;67,2
2016-11-12 12:15;68,95
2016-11-12 12:30;69,35
2016-11-12 12:45;72,65
2016-11-12 13:00;74,65
2016-11-12 13:15;79,95
2016-11-12 13:30;84,25
2016-11-12 13:45;77,55
2016-11-12 14:00;83,5
2016-11-12 14:15;76,35
2016-11-12 14:30;67,85
2016-11-12 14:45;70,7
2016-11-12 15:00;71,75
2016-11-12 15:15;71,15
2016-11-12 15:30;76,4
2016-11-12 15:45;71,2
2016-11-12 16:00;77,8
2016-11-12 16:15;75,95
2016-11-12 16:30;74,65
2016-11-12 16:45;76,5
2016-11-12 17:00;74,65
2016-11-12 17:15;77,8
2016-11-12 17:30;78,55
2016-11-12 17:45;83,5
2016-11-12 18:00;84,05
2016-11-12 18:15;83,35
2016-11-12 18:30;84,95
2016-11-12 18:45;82,75
2016-11-12 19:00;84,65
2016-11-12 19:15;86,35
2016-11-12 19:30;86,6
2016-11-12 19:45;82,35
2016-11-12 20:00;78,75
2016-11-12 20:15;84,45
2016-11-12 20:30;87,75
2016-11-12 20:45;92,5
2016-11-12 21:00;91,55
2016-11-12 21:15;93,85
2016-11-12 21:30;91,65
2016-11-12 21:45;83,35
2016-11-12 22:00;76,15
2016-11-12 22:15;78,45
2016-11-12 22:30;76,55
2016-11-12 22:45;77,75
2016-11-12 23:00;73,55
2016-11-12 23:15;73,05
2016-11-12 23:30;72,75
2016-11-12 23:45;71,35
2016-11-13 00:00;72,55
2016-11-13 00:15;69,6
2016-11-13 00:30;70,95
2016-11-13 00:45;70,2
2016-11-13 01:00;71,2
2016-11-13 01:15;70,8
2016-11-13 01:30;69,6
2016-11-13 01:45;70,2
2016-11-13 02:00;68,2
2016-11-13 02:15;70,05
2016-11-13 02:30;68,5
2016-11-13 02:45;70,35
2016-11-13 03:00;70,25
2016-11-13 03:15;67,9
2016-11-13 03:30;69,7
2016-11-13 03:45;67,9
2016-11-13 04:00;69,8
2016-11-13 04:15;68,9
2016-11-13 04:30;67,8
2016-11-13 04:45;69,85
2016-11-13 05:00;68,2
2016-11-13 05:15;70,3
2016-11-13 05:30;67,8
2016-11-13 05:45;71,8
2016-11-13 06:00;72,8
2016-11-13 06:15;77,45
2016-11-13 06:30;80,6
2016-11-13 06:45;82,75
2016-11-13 07:00;80,6
2016-11-13 07:15;77,1
2016-11-13 07:30;74,8
2016-11-13 07:45;73,9
2016-11-13 08:00;68,65
2016-11-13 08:15;65,95
2016-11-13 08:30;61,45
2016-11-13 08:45;63,9
2016-11-13 09:00;61,6
2016-11-13 09:15;60,95
2016-11-13 09:30;60,75
2016-11-13 09:45;60,35
2016-11-13 10:00;62,2
2016-11-13 10:15;63,65
2016-11-13 10:30;65,05
2016-11-13 10:45;66,4
2016-11-13 11:00;67,55
2016-11-13 11:15;71,3
2016-11-13 11:30;69,85
2016-11-13 11:45;70,85
2016-11-13 12:00;69,25
2016-11-13 12:15;71,25
2016-11-13 12:30;71,3
2016-11-13 12:45;70,35
2016-11-13 13:00;70,25
2016-11-13 13:15;75,85
2016-11-13 13:30;75,45
2016-11-13 13:45;74,75
2016-11-13 14:00;69,8
2016-11-13 14:15;68,85
2016-11-13 14:30;72,25
2016-11-13 14:45;73,5
2016-11-13 15:00;71,4
2016-11-13 15:15;70
2016-11-13 15:30;75,25
2016-11-13 15:45;76,15
2016-11-13 16:00;76,85
2016-11-13 16:15;73,45
2016-11-13 16:30;73,35
2016-11-13 16:45;72,8
2016-11-13 17:00;74,9
2016-11-13 17:15;69,55
2016-11-13 17:30;76,9
2016-11-13 17:45;80,05
2016-11-13 18:00;84,8
2016-11-13 18:15;81,1
2016-11-13 18:30;80,8
2016-11-13 18:45;86,95
2016-11-13 19:00;84,1
2016-11-13 19:15;86,15
2016-11-13 19:30;85,75
2016-11-13 19:45;86,8
2016-11-13 20:00;84,6
2016-11-13 20:15;84,95
2016-11-13 20:30;86,4
2016-11-13 20:45;82,8
2016-11-13 21:00;88,85
2016-11-13 21:15;89,4
2016-11-13 21:30;90,3
2016-11-13 21:45;88,15
2016-11-13 22:00;82,65
2016-11-13 22:15;89,2
2016-11-13 22:30;85,4
2016-11-13 22:45;86,6
2016-11-13 23:00;82,4
2016-11-13 23:15;81,2
2016-11-13 23:30;73,7
2016-11-13 23:45;71,5

